�������l�o���
Date,Time,MP-1(��Sv/h),MP-2(��Sv/h),MP-3(��Sv/h),MP-4(��Sv/h),MP-5(��Sv/h),MP-6(��Sv/h),MP-7(��Sv/h),MP-8(��Sv/h),����,����(m/s),���J
2017/10/03,00:00,0.946,1.509,0.979,1.791,1.242,0.514,0.937,0.866,��쐼,3.1,��
2017/10/03,00:10,0.946,1.510,0.980,1.793,1.243,0.515,0.939,0.866,��쐼,4.6,��
2017/10/03,00:20,0.945,1.509,0.978,1.791,1.243,0.514,0.938,0.865,��,4.2,��
2017/10/03,00:30,0.946,1.511,0.979,1.790,1.240,0.515,0.939,0.863,��,4.4,��
2017/10/03,00:40,0.947,1.509,0.979,1.793,1.244,0.512,0.939,0.865,��,4.5,��
2017/10/03,00:50,0.945,1.509,0.976,1.793,1.240,0.514,0.938,0.864,��쓌,5.7,�L
2017/10/03,01:00,0.948,1.508,0.977,1.794,1.242,0.513,0.939,0.865,��쓌,6.9,�L
2017/10/03,01:10,0.945,1.507,0.979,1.793,1.243,0.515,0.939,0.863,��쓌,8.5,�L
2017/10/03,01:20,0.946,1.504,0.980,1.794,1.242,0.513,0.938,0.864,��쓌,8.2,��
2017/10/03,01:30,0.944,1.504,0.977,1.793,1.241,0.513,0.939,0.865,��쓌,7.7,��
2017/10/03,01:40,0.949,1.503,0.978,1.794,1.241,0.513,0.939,0.864,��,7.2,��
2017/10/03,01:50,0.944,1.505,0.978,1.792,1.241,0.513,0.940,0.863,��,7.5,��
2017/10/03,02:00,0.945,1.506,0.978,1.793,1.240,0.514,0.940,0.865,��쐼,8.7,��
2017/10/03,02:10,0.948,1.508,0.979,1.792,1.238,0.513,0.940,0.866,��쐼,7.8,��
2017/10/03,02:20,0.946,1.509,0.979,1.796,1.242,0.514,0.941,0.866,��쐼,7.4,��
2017/10/03,02:30,0.946,1.510,0.979,1.794,1.240,0.513,0.939,0.866,��쐼,5.8,��
2017/10/03,02:40,0.947,1.508,0.980,1.796,1.242,0.512,0.941,0.865,��쐼,6.2,��
2017/10/03,02:50,0.946,1.510,0.980,1.795,1.244,0.512,0.942,0.866,��,4.9,��
2017/10/03,03:00,0.945,1.510,0.980,1.795,1.244,0.514,0.941,0.865,��쐼,4.5,��
2017/10/03,03:10,0.945,1.508,0.979,1.794,1.240,0.513,0.941,0.865,�쐼,5.3,��
2017/10/03,03:20,0.947,1.508,0.979,1.793,1.240,0.513,0.940,0.867,�쐼,5.2,��
2017/10/03,03:30,0.948,1.508,0.978,1.793,1.239,0.513,0.939,0.865,�쐼,4.8,��
2017/10/03,03:40,0.948,1.510,0.982,1.795,1.239,0.515,0.939,0.865,�쐼,3.5,��
2017/10/03,03:50,0.945,1.508,0.980,1.797,1.241,0.514,0.940,0.866,�쐼,2.6,��
2017/10/03,04:00,0.945,1.509,0.980,1.793,1.241,0.514,0.937,0.864,��쐼,3.1,��
2017/10/03,04:10,0.944,1.509,0.979,1.791,1.243,0.515,0.938,0.864,��쓌,2.3,��
2017/10/03,04:20,0.945,1.511,0.979,1.794,1.242,0.513,0.937,0.865,��,2.3,��
2017/10/03,04:30,0.943,1.506,0.979,1.794,1.242,0.514,0.938,0.865,��쓌,3.9,��
2017/10/03,04:40,0.944,1.507,0.976,1.797,1.238,0.512,0.939,0.866,��쓌,3.8,��
2017/10/03,04:50,0.946,1.509,0.980,1.795,1.242,0.512,0.940,0.865,��쓌,4.4,��
2017/10/03,05:00,0.946,1.506,0.980,1.796,1.242,0.514,0.940,0.865,��,3.0,��
2017/10/03,05:10,0.946,1.506,0.979,1.794,1.242,0.512,0.938,0.865,��쐼,2.3,��
2017/10/03,05:20,0.946,1.505,0.981,1.793,1.243,0.513,0.938,0.866,��쐼,2.0,��
2017/10/03,05:30,0.947,1.505,0.979,1.795,1.241,0.513,0.938,0.864,��,2.5,��
2017/10/03,05:40,0.948,1.509,0.979,1.794,1.246,0.513,0.940,0.864,��,4.0,��
2017/10/03,05:50,0.945,1.508,0.979,1.794,1.243,0.514,0.939,0.865,��,4.4,��
2017/10/03,06:00,0.949,1.513,0.981,1.795,1.244,0.513,0.942,0.866,��,4.0,��
2017/10/03,06:10,0.946,1.513,0.980,1.791,1.241,0.514,0.941,0.867,��,3.4,��
2017/10/03,06:20,0.945,1.514,0.979,1.794,1.242,0.513,0.940,0.864,��쐼,2.8,��
2017/10/03,06:30,0.946,1.509,0.979,1.796,1.246,0.513,0.940,0.865,��,2.8,��
2017/10/03,06:40,0.948,1.509,0.980,1.794,1.245,0.514,0.941,0.865,��쐼,1.2,��
2017/10/03,06:50,0.946,1.512,0.980,1.794,1.245,0.514,0.941,0.863,-,CALM,��
2017/10/03,07:00,0.944,1.507,0.979,1.794,1.245,0.511,0.941,0.866,���쐼,0.6,��
2017/10/03,07:10,0.948,1.511,0.979,1.791,1.243,0.513,0.941,0.865,��쓌,2.6,��
2017/10/03,07:20,0.948,1.512,0.981,1.794,1.243,0.511,0.942,0.867,��,2.9,��
2017/10/03,07:30,0.947,1.509,0.981,1.797,1.244,0.513,0.942,0.867,��,4.7,��
2017/10/03,07:40,0.947,1.509,0.980,1.794,1.243,0.513,0.942,0.865,��,4.6,��
2017/10/03,07:50,0.947,1.511,0.982,1.798,1.243,0.513,0.940,0.864,��쐼,4.0,��
2017/10/03,08:00,0.949,1.506,0.979,1.795,1.243,0.512,0.940,0.865,��쐼,4.2,��
2017/10/03,08:10,0.945,1.509,0.978,1.798,1.239,0.512,0.938,0.866,��,2.2,��
2017/10/03,08:20,0.946,1.510,0.979,1.796,1.242,0.511,0.939,0.865,��쓌,3.3,��
2017/10/03,08:30,0.948,1.511,0.979,1.798,1.240,0.512,0.940,0.863,��쓌,5.7,��
2017/10/03,08:40,0.949,1.510,0.978,1.798,1.240,0.511,0.940,0.864,��쓌,5.5,��
2017/10/03,08:50,0.948,1.511,0.977,1.796,1.241,0.510,0.940,0.861,�쓌,5.3,��
2017/10/03,09:00,0.947,1.506,0.977,1.797,1.241,0.511,0.939,0.862,��쓌,5.4,��
2017/10/03,09:10,0.948,1.505,0.976,1.799,1.243,0.511,0.941,0.862,��쓌,5.8,��
2017/10/03,09:20,0.950,1.508,0.978,1.798,1.244,0.513,0.940,0.862,��쓌,6.6,��
2017/10/03,09:30,0.949,1.509,0.975,1.795,1.245,0.511,0.939,0.864,��쓌,6.1,��
2017/10/03,09:40,0.950,1.511,0.976,1.796,1.244,0.510,0.942,0.863,��,5.4,��
2017/10/03,09:50,0.951,1.512,0.979,1.800,1.246,0.514,0.941,0.865,��쓌,3.1,��
2017/10/03,10:00,0.951,1.512,0.978,1.797,1.250,0.515,0.941,0.863,��쓌,5.7,��
2017/10/03,10:10,0.951,1.511,0.981,1.800,1.244,0.514,0.942,0.864,��,5.8,��
2017/10/03,10:20,0.951,1.510,0.983,1.797,1.248,0.513,0.941,0.863,��쓌,6.4,��
2017/10/03,10:30,0.952,1.511,0.980,1.801,1.249,0.515,0.941,0.865,��쓌,6.0,��
2017/10/03,10:40,0.952,1.513,0.981,1.796,1.249,0.514,0.941,0.865,��쓌,7.2,��
2017/10/03,10:50,0.953,1.515,0.982,1.800,1.247,0.513,0.943,0.865,��쓌,6.8,��
2017/10/03,11:00,0.953,1.516,0.983,1.797,1.251,0.515,0.944,0.864,��,6.1,��
2017/10/03,11:10,0.952,1.516,0.981,1.802,1.250,0.514,0.942,0.863,��쓌,5.9,��
2017/10/03,11:20,0.953,1.513,0.980,1.801,1.251,0.516,0.945,0.866,��쓌,6.0,��
2017/10/03,11:30,0.953,1.516,0.981,1.799,1.251,0.514,0.943,0.864,��쓌,6.3,��
2017/10/03,11:40,0.952,1.515,0.982,1.798,1.250,0.516,0.943,0.864,��쓌,5.1,��
2017/10/03,11:50,0.954,1.518,0.983,1.800,1.252,0.517,0.942,0.863,��쓌,5.6,��
2017/10/03,12:00,0.953,1.516,0.982,1.799,1.253,0.515,0.944,0.863,��쓌,6.0,��
2017/10/03,12:10,0.953,1.517,0.984,1.800,1.250,0.516,0.941,0.865,��쓌,5.0,��
2017/10/03,12:20,0.955,1.517,0.983,1.799,1.250,0.517,0.942,0.863,��쓌,3.5,��
2017/10/03,12:30,0.954,1.522,0.984,1.801,1.255,0.516,0.943,0.865,�쓌,1.4,��
2017/10/03,12:40,0.957,1.520,0.986,1.802,1.252,0.517,0.943,0.866,-,CALM,��
2017/10/03,12:50,0.956,1.520,0.983,1.801,1.252,0.517,0.942,0.865,���k��,1.7,��
2017/10/03,13:00,0.955,1.523,0.987,1.805,1.254,0.518,0.943,0.864,�k�k��,2.0,��
2017/10/03,13:10,0.956,1.518,0.984,1.802,1.254,0.517,0.943,0.863,�k�k��,3.1,��
2017/10/03,13:20,0.955,1.518,0.983,1.802,1.252,0.520,0.945,0.866,�k��,3.3,��
2017/10/03,13:30,0.957,1.517,0.985,1.803,1.254,0.517,0.942,0.864,�k�k��,3.1,��
2017/10/03,13:40,0.957,1.516,0.983,1.805,1.254,0.516,0.944,0.865,�k�k��,3.4,��
2017/10/03,13:50,0.956,1.521,0.984,1.802,1.254,0.517,0.942,0.864,�k�k��,3.6,��
2017/10/03,14:00,0.956,1.518,0.984,1.800,1.253,0.515,0.943,0.865,�k�k��,4.9,��
2017/10/03,14:10,0.955,1.519,0.983,1.801,1.252,0.516,0.943,0.864,�k�k��,4.9,��
2017/10/03,14:20,0.955,1.518,0.985,1.803,1.253,0.515,0.943,0.865,�k,4.5,��
2017/10/03,14:30,0.955,1.520,0.981,1.803,1.250,0.515,0.942,0.866,�k,7.7,��
2017/10/03,14:40,0.956,1.516,0.982,1.800,1.251,0.514,0.942,0.866,�k,8.9,��
2017/10/03,14:50,0.954,1.517,0.981,1.803,1.248,0.515,0.940,0.863,�k�k��,11.9,�L
2017/10/03,15:00,0.953,1.516,0.982,1.801,1.251,0.512,0.940,0.864,�k�k��,11.9,�L
2017/10/03,15:10,0.955,1.518,0.980,1.800,1.251,0.513,0.940,0.865,�k�k��,11.4,�L
2017/10/03,15:20,0.954,1.519,0.981,1.802,1.251,0.513,0.938,0.864,�k�k��,9.7,�L
2017/10/03,15:30,0.953,1.515,0.980,1.799,1.251,0.511,0.939,0.864,�k�k��,10.2,�L
2017/10/03,15:40,0.952,1.515,0.980,1.803,1.252,0.511,0.940,0.864,�k�k��,8.4,�L
2017/10/03,15:50,0.951,1.518,0.980,1.800,1.250,0.510,0.940,0.863,�k�k��,9.9,�L
2017/10/03,16:00,0.951,1.515,0.978,1.799,1.248,0.510,0.939,0.865,�k�k��,9.4,�L
2017/10/03,16:10,0.952,1.517,0.980,1.802,1.253,0.511,0.939,0.864,�k�k��,9.1,�L
2017/10/03,16:20,0.951,1.517,0.982,1.802,1.252,0.511,0.939,0.864,�k�k��,8.1,�L
2017/10/03,16:30,0.951,1.517,0.980,1.801,1.250,0.513,0.940,0.866,�k,8.3,�L
2017/10/03,16:40,0.950,1.518,0.980,1.802,1.250,0.511,0.939,0.864,�k,8.0,�L
2017/10/03,16:50,0.952,1.519,0.981,1.800,1.252,0.512,0.939,0.863,�k,7.2,�L
2017/10/03,17:00,0.951,1.515,0.983,1.801,1.251,0.514,0.938,0.866,�k,8.2,�L
2017/10/03,17:10,0.952,1.517,0.983,1.801,1.250,0.512,0.939,0.866,�k�k��,7.6,�L
2017/10/03,17:20,0.951,1.520,0.983,1.801,1.252,0.513,0.938,0.866,�k,8.8,�L
2017/10/03,17:30,0.952,1.522,0.985,1.802,1.253,0.512,0.941,0.867,�k�k��,9.0,�L
2017/10/03,17:40,0.953,1.521,0.984,1.801,1.253,0.512,0.940,0.865,�k�k��,7.7,�L
2017/10/03,17:50,0.950,1.518,0.983,1.800,1.251,0.512,0.940,0.867,�k�k��,7.6,��
2017/10/03,18:00,0.949,1.519,0.986,1.800,1.252,0.513,0.940,0.864,�k�k��,8.4,��
2017/10/03,18:10,0.948,1.518,0.983,1.801,1.254,0.510,0.940,0.867,�k�k��,9.0,��
2017/10/03,18:20,0.948,1.519,0.983,1.799,1.251,0.509,0.942,0.867,�k�k��,8.3,��
2017/10/03,18:30,0.949,1.519,0.983,1.799,1.254,0.510,0.940,0.867,�k,6.4,��
2017/10/03,18:40,0.948,1.518,0.984,1.802,1.254,0.511,0.942,0.868,�k�k��,4.1,��
2017/10/03,18:50,0.947,1.519,0.985,1.800,1.251,0.511,0.940,0.866,�k�k��,3.7,��
2017/10/03,19:00,0.947,1.520,0.984,1.801,1.251,0.510,0.938,0.867,�k�k��,4.2,��
2017/10/03,19:10,0.951,1.517,0.983,1.801,1.253,0.512,0.938,0.867,�k�k��,4.2,��
2017/10/03,19:20,0.953,1.519,0.981,1.799,1.250,0.514,0.940,0.867,�k�k��,3.0,��
2017/10/03,19:30,0.952,1.519,0.982,1.802,1.254,0.512,0.942,0.867,�k�k��,3.2,��
2017/10/03,19:40,0.953,1.518,0.983,1.800,1.251,0.512,0.942,0.866,�k�k��,3.5,��
2017/10/03,19:50,0.954,1.517,0.984,1.800,1.252,0.514,0.941,0.866,�k,4.1,��
2017/10/03,20:00,0.952,1.520,0.982,1.801,1.253,0.511,0.942,0.867,�k,5.4,��
2017/10/03,20:10,0.952,1.519,0.981,1.801,1.253,0.512,0.941,0.866,�k�k��,6.1,��
2017/10/03,20:20,0.952,1.518,0.983,1.799,1.255,0.513,0.941,0.867,�k�k��,6.1,��
2017/10/03,20:30,0.953,1.518,0.982,1.802,1.255,0.514,0.942,0.867,�k,5.2,��
2017/10/03,20:40,0.953,1.517,0.982,1.801,1.252,0.513,0.943,0.866,�k�k��,5.6,��
2017/10/03,20:50,0.954,1.518,0.983,1.798,1.253,0.511,0.942,0.866,�k�k��,6.0,��
2017/10/03,21:00,0.952,1.520,0.979,1.800,1.252,0.512,0.941,0.866,�k�k��,6.7,��
2017/10/03,21:10,0.952,1.518,0.982,1.799,1.250,0.514,0.942,0.866,�k�k��,6.2,��
2017/10/03,21:20,0.952,1.520,0.982,1.801,1.252,0.514,0.943,0.867,�k�k��,5.7,��
2017/10/03,21:30,0.951,1.519,0.983,1.798,1.252,0.514,0.942,0.866,�k�k��,5.2,��
2017/10/03,21:40,0.955,1.521,0.981,1.799,1.252,0.512,0.941,0.866,�k�k��,5.3,��
2017/10/03,21:50,0.950,1.520,0.983,1.800,1.254,0.512,0.941,0.867,�k�k��,5.3,��
2017/10/03,22:00,0.951,1.521,0.983,1.802,1.250,0.511,0.941,0.865,�k,5.2,��
2017/10/03,22:10,0.952,1.519,0.980,1.799,1.252,0.512,0.941,0.866,�k,4.8,��
2017/10/03,22:20,0.952,1.518,0.981,1.798,1.254,0.512,0.939,0.865,�k,6.7,��
2017/10/03,22:30,0.953,1.520,0.982,1.798,1.254,0.512,0.942,0.865,�k,6.9,��
2017/10/03,22:40,0.953,1.521,0.983,1.800,1.252,0.511,0.941,0.866,�k,7.3,��
2017/10/03,22:50,0.951,1.518,0.983,1.797,1.252,0.512,0.940,0.866,�k,6.3,��
2017/10/03,23:00,0.952,1.521,0.983,1.803,1.254,0.512,0.943,0.865,�k,6.8,��
2017/10/03,23:10,0.955,1.518,0.984,1.800,1.252,0.513,0.941,0.866,�k,7.1,��
2017/10/03,23:20,0.951,1.519,0.982,1.801,1.253,0.512,0.944,0.864,�k,4.4,��
2017/10/03,23:30,0.953,1.519,0.982,1.802,1.253,0.512,0.942,0.864,�k�k��,5.1,��
2017/10/03,23:40,0.952,1.516,0.982,1.800,1.253,0.512,0.940,0.865,�k�k��,6.2,��
2017/10/03,23:50,0.950,1.519,0.982,1.800,1.253,0.511,0.939,0.866,�k,6.0,��
